Location: Arrien
(42.8963°N, 1.0429°E)
Time: 07:13:06
(UTC+00:00)

Cosmos 2058 Rocket - Visible Passes

Search period start: 11 March 2026 00:00
Search period end: 21 March 2026 00:00
Orbit: 605 x 631 km, 82.5° (Epoch: 10 March)

Date Brightness Start Highest point End Pass type
(mag) Time Alt. Az. Time Alt. Az. Time Alt. Az.
11 Mar 6.8 19:15:26 10° WNW 19:16:51 11° W 19:18:16 10° W visible
14 Mar 6.7 05:06:08 10° ESE 05:08:00 13° E 05:09:52 10° ENE visible
14 Mar 6.4 18:27:08 10° NW 18:30:23 20° W 18:33:37 10° SW visible
15 Mar 6.0 05:21:19 10° SE 05:24:44 22° E 05:28:12 10° NE visible
15 Mar 7.1 18:45:51 10° WNW 18:47:07 11° W 18:48:22 10° W visible
18 Mar 6.5 04:36:15 10° ESE 04:38:15 13° E 04:40:14 10° ENE visible
19 Mar 5.8 04:51:31 10° SE 04:54:59 23° E 04:58:30 10° NE visible
20 Mar 4.6 05:07:40 10° SSE 05:11:49 41° E 05:16:01 10° NNE visible
